Regional Weather Roundup
Issued by NWS

Home | Current Version | Previous Version | Text Only | Print | Product List | Glossary Off
Versions: 1 2 3 4 5 6 7 8 9 10 11 12 13 14 15 16 17 18 19 20 21 22 23 24 25 26 27 28 29 30 31 32 33 34 35 36 37 38 39 40 41 42 43 44 45 46 47 48 49 50

000
ASUS43 KFSD 261710
RWRSD

WEATHER ROUNDUP FOR SOUTH DAKOTA
NATIONAL WEATHER SERVICE SIOUX FALLS SD
1200 PM CDT THU MAR 26 2015

NOTE: "FAIR" INDICATES FEW OR NO CLOUDS BELOW 12,000 FEET WITH NO
SIGNIFICANT WEATHER AND/OR OBSTRUCTIONS TO VISIBILITY.


SDZ001>005-009-010-012>017-261800-
NORTHWEST AND NORTH CENTRAL SOUTH DAKOTA

CITY           SKY/WX    TMP DP  RH WIND       PRES   REMARKS
BUFFALO          N/A     40  30  67 E8        30.07R
FAITH            N/A     31  28  89 SE6       30.13R WCI  25
MOBRIDGE       CLOUDY    35  26  69 CALM      30.17R
$$

SDZ012>016-024>037-041>051-057-063-072>074-261800-
SOUTHWEST AND SOUTH CENTRAL SOUTH DAKOTA

CITY           SKY/WX    TMP DP  RH WIND       PRES   REMARKS
RAPID CTY ARPT CLOUDY    50  27  40 NW28G40   30.08R
PIERRE         SNOW      29  27  92 E9        30.15S VSB 1/2 WCI  20
CUSTER         CLOUDY    40  24  53 NW17G30   30.08R
ELLSWORTH AFB  CLOUDY    49  27  42 N25G37    30.07R
PHILIP         PTSUNNY   41  26  55 NE14      30.11R
PINE RIDGE     CLOUDY    49  29  46 W18       30.09F
SPEARFISH      PTSUNNY   45  27  49 NW20G29   30.12R
WINNER         LGT SNOW  34  29  82 E12       30.12F VSB 3/4 WCI  25
$$

SDZ004>011-016>023-039-040-261800-
NORTHEAST SOUTH DAKOTA

CITY           SKY/WX    TMP DP  RH WIND       PRES   REMARKS
ABERDEEN       CLOUDY    35  24  64 N15       30.22S WCI  25
WATERTOWN      CLOUDY    33  20  58 N12G20    30.17S WCI  24
SISSETON         N/A     30  21  69 N18       30.22S WCI  18
$$

SDZ017-020-022-023-036>040-048>070-261800-
SOUTHEAST SOUTH DAKOTA

CITY           SKY/WX    TMP DP  RH WIND       PRES   REMARKS
SIOUX FALLS    CLOUDY    39  23  52 N12       30.17F
HURON          CLOUDY    33  24  69 N3        30.20S
CHAMBERLAIN    LGT SNOW  33  27  77 SE7       30.16F WCI  27
MITCHELL       CLOUDY    35  24  64 CALM      30.21S
YANKTON        PTSUNNY   37  19  48 W5        30.20F
$$

ABBREVIATIONS USED IN REMARKS
   TC - TEMPERATURE IN CELSIUS
  WCI - WIND CHILL INDEX
   HX - HEAT INDEX
  VSB - VISIBILITY




USA.gov is the U.S. government's official web portal to all federal, state and local government web resources and services.